Showing default

NUSAT-45 (UZMASAT-1), 62640

Orbit data source: Space-Track

NUSAT-45 (UZMASAT-1), 62640 is an Argentinean payload satellite in SSO that was launched on Tue, 14 Jan 2025 UTC via an FALCON 9 launch vehicle from the Air Force Western Test Range (AFWTR). Payload-class satellites include a variety of spacecraft equipped with specific instruments for various scientific and technological missions. These include communications satellites like Starlink; space stations such as the ISS; scientific satellites like the Hubble; Earth observation satellites from companies like Planet Labs, Umbra, and HawkEye 360; GPS; miniature CubeSats for education and research; and military/defense satellites.

Loading next visibility...
Identifier
62640, 2025-009AH
Orbit
SSO
Country
Flag of ARAR / ARGN
Related business
Manufacturer
URUGUS S.A.
Mission
Operational Commercial Imaging
Bus & Motor
NEWSAT V, Unknown motor
Mass
41.5 kg wet, 38.5 kg dry
Launch date (UTC)
2025-01-14 (1 year ago)
Launch vehicle
FALCON 9
Launch site
Air Force Western Test Range (AFWTR)
Object type
Payload
Rocket body
Debris
Shape & HBR
Box, 1.0 m
Radar Cross Section
0.542 m², Medium (>0.1 m² and < 1m²)

Expand to show TLE details & history
Last TLE update: 16 hours ago

TLE from 16 hours ago
0 NUSAT-45 (UZMASAT-1)
1 62640U 25009AH  26127.18446140  .00008102  00000-0  28284-3 0  9998
2 62640  97.3591 208.7681 0003513 109.2895 250.8726 15.29846610 72654
Epoch: 2026-05-07T04:25Z
TLE epoch observation values (Epoch: 2026-05-07T04:25:37.464Z)
Latitude
-0.00003°
Longitude
-82.67224°
Altitude
480.165 km
Speed
7.625 km/s
True Right ascension
13h 55m 04s
True Declination
0° 00' 00"
Sunlit
Object was in full shadow at epoch
Visualization orbit readout
Latitude
Unknown
Longitude
Unknown
Altitude
Unknown
Speed
Unknown
Apparent Right ascension
Unknown
Apparent Declination
Unknown
Sunlit
N/A
Visualization observer readout
Local Sidereal Time
04:21:23
Azimuth
Unknown
Elevation
Unknown
Doppler factor
Unknown
Orbital elements
Apogee altitude
475.628 km
Perigee altitude
470.814 km
Semi-major axis
6,851.358 km
Eccentricity
0.00035
Inclination
97.3591°
RAAN
208.7681°
Arg. of periapsis
109.2895°
True anomaly
250.83457°
Mean anomaly
250.8726°
Eccentric anomaly
250.85359°
Mean motion
3.82717 °/min
Orbital period
94.06 mins
BSTAR
0.00028284
Loading maneuver chart data...
Computing Atmospheric mass density...
Loading historical data...
Loading historical data...
Loading historical data...
Loading historical data...
Loading historical data...
Loading historical data...
Loading historical data...

Documentation

Showing up to 5 results
|